GLD1793 SBGR-SBNF

Flight info

Callsign GLD1793
Flight time N/A
Altitude 34000
Route ZORZ3A MADNI UZ92 PUBIS PUBI2C
Aircraft B738/M-SDFGIRY/S

Departure

Time N/A
Airport São Paulo/Guarulhos–Governor André Franco Montoro International Airport (SBGR)

Arrival

Time 2026-04-25 11:43
Airport Ministro Victor Konder International Airport (SBNF)
Time Latitude Longitude Altitude Speed Heading
2026-04-25 11:10 -24.43025 -47.08135 28597 ft 465 kts 208°
2026-04-25 11:10 -24.45961 -47.09488 28915 ft 463 kts 208°
2026-04-25 11:11 -24.48933 -47.10858 29305 ft 461 kts 208°
2026-04-25 11:11 -24.51882 -47.12217 29676 ft 459 kts 208°
2026-04-25 11:11 -24.54825 -47.13577 30002 ft 459 kts 208°
2026-04-25 11:11 -24.57768 -47.14938 30286 ft 459 kts 208°
2026-04-25 11:12 -24.60712 -47.16300 30602 ft 458 kts 208°
2026-04-25 11:12 -24.63655 -47.17663 30942 ft 456 kts 208°
2026-04-25 11:12 -24.66579 -47.19018 31283 ft 455 kts 208°
2026-04-25 11:12 -24.69496 -47.20370 31628 ft 454 kts 208°
2026-04-25 11:13 -24.72404 -47.21718 31976 ft 453 kts 208°
2026-04-25 11:13 -24.75300 -47.23062 32342 ft 452 kts 208°
2026-04-25 11:13 -24.78153 -47.24386 32690 ft 451 kts 208°
2026-04-25 11:13 -24.81047 -47.25731 33032 ft 450 kts 208°
2026-04-25 11:14 -24.83965 -47.27087 33379 ft 449 kts 208°
2026-04-25 11:14 -24.86844 -47.28426 33768 ft 448 kts 208°
2026-04-25 11:14 -24.89680 -47.29746 33982 ft 449 kts 208°
2026-04-25 11:15 -24.95452 -47.32435 33976 ft 449 kts 208°
2026-04-25 11:15 -25.01150 -47.35084 33974 ft 433 kts 209°
2026-04-25 11:16 -25.09350 -47.38912 33993 ft 425 kts 209°
2026-04-25 11:16 -25.14803 -47.41465 33984 ft 426 kts 209°
2026-04-25 11:17 -25.20272 -47.44022 33981 ft 427 kts 209°
2026-04-25 11:17 -25.25512 -47.46985 33992 ft 420 kts 219°
2026-04-25 11:18 -25.30410 -47.50558 33699 ft 424 kts 219°
2026-04-25 11:18 -25.32880 -47.52352 33107 ft 423 kts 219°
2026-04-25 11:18 -25.35342 -47.54122 32443 ft 422 kts 219°
2026-04-25 11:19 -25.37797 -47.55878 31959 ft 417 kts 219°
2026-04-25 11:19 -25.40222 -47.57611 31446 ft 413 kts 219°
2026-04-25 11:19 -25.42615 -47.59326 30948 ft 409 kts 219°
2026-04-25 11:19 -25.44993 -47.61037 30431 ft 406 kts 219°
2026-04-25 11:20 -25.47320 -47.62712 29927 ft 402 kts 219°
2026-04-25 11:20 -25.49656 -47.64397 29362 ft 399 kts 219°
2026-04-25 11:20 -25.51967 -47.66064 28828 ft 394 kts 219°
2026-04-25 11:20 -25.54251 -47.67711 28314 ft 389 kts 219°
2026-04-25 11:21 -25.56511 -47.69342 27833 ft 385 kts 219°
2026-04-25 11:21 -25.58741 -47.70953 27337 ft 381 kts 220°
2026-04-25 11:21 -25.60951 -47.72550 26854 ft 377 kts 219°
2026-04-25 11:21 -25.63136 -47.74130 26366 ft 374 kts 219°
2026-04-25 11:22 -25.65305 -47.75699 25902 ft 371 kts 219°
2026-04-25 11:22 -25.66738 -47.76736 25589 ft 369 kts 219°
2026-04-25 11:22 -25.69598 -47.78807 24960 ft 365 kts 219°
2026-04-25 11:22 -25.71727 -47.80350 24486 ft 364 kts 219°
2026-04-25 11:23 -25.73839 -47.81881 24009 ft 362 kts 220°
2026-04-25 11:23 -25.75943 -47.83406 23523 ft 361 kts 219°
2026-04-25 11:23 -25.78036 -47.84924 22991 ft 358 kts 219°
2026-04-25 11:23 -25.80116 -47.86433 22498 ft 355 kts 219°
2026-04-25 11:24 -25.82177 -47.87928 22025 ft 352 kts 219°
2026-04-25 11:24 -25.84218 -47.89410 21564 ft 349 kts 219°
2026-04-25 11:24 -25.86241 -47.90879 21110 ft 346 kts 219°
2026-04-25 11:24 -25.88228 -47.92323 20670 ft 344 kts 219°
2026-04-25 11:25 -25.90219 -47.93771 20230 ft 341 kts 219°
2026-04-25 11:25 -25.92201 -47.95213 19789 ft 339 kts 219°
2026-04-25 11:25 -25.94172 -47.96648 19347 ft 338 kts 219°
2026-04-25 11:25 -25.96134 -47.98077 18897 ft 337 kts 218°
2026-04-25 11:26 -25.98091 -47.99502 18441 ft 336 kts 218°
2026-04-25 11:26 -26.00040 -48.00922 17962 ft 335 kts 218°
2026-04-25 11:26 -26.01987 -48.02340 17493 ft 333 kts 218°
2026-04-25 11:26 -26.03889 -48.03792 16971 ft 330 kts 223°
2026-04-25 11:27 -26.05599 -48.05499 16379 ft 329 kts 227°
2026-04-25 11:27 -26.07222 -48.07289 15906 ft 327 kts 228°
2026-04-25 11:27 -26.08830 -48.09075 15473 ft 325 kts 228°
2026-04-25 11:27 -26.09373 -48.09672 15328 ft 324 kts 228°
2026-04-25 11:28 -26.11495 -48.11981 14773 ft 321 kts 227°
2026-04-25 11:28 -26.13097 -48.13700 14349 ft 319 kts 227°
2026-04-25 11:28 -26.14697 -48.15405 13925 ft 317 kts 226°
2026-04-25 11:28 -26.16291 -48.17101 13476 ft 316 kts 226°
2026-04-25 11:29 -26.17873 -48.18777 13021 ft 314 kts 225°
2026-04-25 11:29 -26.19604 -48.20265 12582 ft 315 kts 217°
2026-04-25 11:29 -26.21459 -48.21572 12157 ft 314 kts 215°
2026-04-25 11:29 -26.23323 -48.22823 11728 ft 312 kts 214°
2026-04-25 11:30 -26.25183 -48.24069 11311 ft 311 kts 214°
2026-04-25 11:30 -26.27026 -48.25316 10903 ft 309 kts 214°
2026-04-25 11:30 -26.28855 -48.26567 10510 ft 307 kts 215°
2026-04-25 11:30 -26.30641 -48.27796 10356 ft 297 kts 215°
2026-04-25 11:31 -26.32351 -48.28979 10221 ft 288 kts 215°
2026-04-25 11:31 -26.34021 -48.30140 10094 ft 278 kts 215°
2026-04-25 11:31 -26.35639 -48.31267 9956 ft 270 kts 215°
2026-04-25 11:31 -26.37225 -48.32375 9645 ft 269 kts 215°
2026-04-25 11:32 -26.38806 -48.33482 9332 ft 267 kts 215°
2026-04-25 11:32 -26.40395 -48.34594 9065 ft 265 kts 215°
2026-04-25 11:32 -26.41975 -48.35573 8607 ft 265 kts 206°
2026-04-25 11:32 -26.43713 -48.36260 8161 ft 264 kts 201°
2026-04-25 11:33 -26.45477 -48.36870 7814 ft 266 kts 200°
2026-04-25 11:33 -26.47245 -48.37463 7514 ft 265 kts 200°
2026-04-25 11:33 -26.49002 -48.38071 7216 ft 264 kts 201°
2026-04-25 11:33 -26.50743 -48.38714 6916 ft 263 kts 203°
2026-04-25 11:34 -26.52461 -48.39386 6621 ft 262 kts 204°
2026-04-25 11:34 -26.54178 -48.40075 6319 ft 261 kts 204°
2026-04-25 11:34 -26.55894 -48.40752 5998 ft 261 kts 203°
2026-04-25 11:34 -26.57615 -48.41401 5688 ft 260 kts 202°
2026-04-25 11:35 -26.59335 -48.42024 5387 ft 260 kts 202°
2026-04-25 11:35 -26.61049 -48.42635 5084 ft 259 kts 202°
2026-04-25 11:35 -26.62763 -48.43257 4784 ft 258 kts 202°
2026-04-25 11:35 -26.64455 -48.43891 4530 ft 255 kts 203°
2026-04-25 11:36 -26.66105 -48.44519 4399 ft 247 kts 203°
2026-04-25 11:36 -26.67693 -48.45119 4270 ft 240 kts 202°
2026-04-25 11:36 -26.69250 -48.45696 4156 ft 232 kts 202°
2026-04-25 11:36 -26.70742 -48.46241 4092 ft 218 kts 202°
2026-04-25 11:37 -26.72137 -48.46749 3981 ft 205 kts 202°
2026-04-25 11:37 -26.73452 -48.47235 3849 ft 194 kts 203°
2026-04-25 11:37 -26.74710 -48.47705 3691 ft 187 kts 203°
2026-04-25 11:37 -26.75925 -48.48161 3510 ft 180 kts 203°
2026-04-25 11:38 -26.77094 -48.48600 3318 ft 174 kts 203°
2026-04-25 11:38 -26.78149 -48.49151 3095 ft 164 kts 229°
2026-04-25 11:38 -26.78799 -48.50172 2962 ft 161 kts 238°
2026-04-25 11:38 -26.79435 -48.51199 2772 ft 161 kts 238°
2026-04-25 11:39 -26.80062 -48.52211 2598 ft 153 kts 238°
2026-04-25 11:39 -26.80661 -48.53173 2454 ft 148 kts 238°
2026-04-25 11:39 -26.81251 -48.54123 2275 ft 150 kts 238°
2026-04-25 11:39 -26.81844 -48.55091 2072 ft 150 kts 238°
2026-04-25 11:40 -26.82433 -48.56055 1906 ft 148 kts 238°
2026-04-25 11:40 -26.83016 -48.57011 1688 ft 147 kts 238°
2026-04-25 11:40 -26.83594 -48.57961 1437 ft 145 kts 238°
2026-04-25 11:40 -26.84144 -48.58861 1254 ft 135 kts 238°
2026-04-25 11:41 -26.84664 -48.59717 1076 ft 131 kts 237°
2026-04-25 11:41 -26.85174 -48.60554 915 ft 133 kts 237°
2026-04-25 11:41 -26.85699 -48.61412 725 ft 134 kts 237°
2026-04-25 11:41 -26.86212 -48.62280 471 ft 132 kts 238°
2026-04-25 11:42 -26.86713 -48.63121 268 ft 129 kts 237°
2026-04-25 11:42 -26.87228 -48.63945 137 ft 130 kts 237°
2026-04-25 11:42 -26.87733 -48.64761 24 ft 121 kts 238°
2026-04-25 11:42 -26.88084 -48.65332 20 ft 57 kts 236°
2026-04-25 11:43 -26.88185 -48.65497 20 ft 0 kts 235°
2026-04-25 11:43 -26.88202 -48.65524 21 ft 10 kts 235°
2026-04-25 11:43 -26.88244 -48.65593 21 ft 11 kts 235°
2026-04-25 11:43 -26.88296 -48.65677 21 ft 15 kts 237°
2026-04-25 11:44 -26.88332 -48.65773 20 ft 10 kts 251°
2026-04-25 11:44 -26.88362 -48.65786 20 ft 3 kts 132°
2026-04-25 11:44 -26.88353 -48.65761 20 ft 6 kts 52°
2026-04-25 11:44 -26.88318 -48.65712 21 ft 9 kts 52°
2026-04-25 11:45 -26.88268 -48.65639 21 ft 13 kts 56°
2026-04-25 11:45 -26.88216 -48.65550 21 ft 16 kts 57°
2026-04-25 11:45 -26.88152 -48.65443 20 ft 17 kts 55°
2026-04-25 11:45 -26.88088 -48.65338 20 ft 16 kts 56°
2026-04-25 11:46 -26.88026 -48.65235 19 ft 16 kts 56°
2026-04-25 11:46 -26.87964 -48.65135 19 ft 15 kts 54°
2026-04-25 11:46 -26.87916 -48.65034 23 ft 15 kts 91°
2026-04-25 11:46 -26.87974 -48.64971 20 ft 10 kts 163°
2026-04-25 11:47 -26.88006 -48.64953 20 ft 0 kts 151°